TimeEDT,TemperatureF,Dew PointF,Humidity,Sea Level PressureIn,VisibilityMPH,Wind Direction,Wind SpeedMPH,Gust SpeedMPH,PrecipitationIn,Events,Conditions,WindDirDegrees,DateUTC
12:53 AM,73.9,70.0,87,29.85,10.0,NNE,4.6,-,N/A,,Clear,20,2012-09-06 04:53:00
1:53 AM,73.9,69.1,85,29.85,10.0,North,3.5,-,N/A,,Clear,360,2012-09-06 05:53:00
2:53 AM,73.0,68.0,84,29.85,10.0,NE,3.5,-,N/A,,Clear,40,2012-09-06 06:53:00
3:53 AM,73.0,68.0,84,29.86,10.0,North,3.5,-,N/A,,Clear,350,2012-09-06 07:53:00
4:53 AM,73.0,66.9,81,29.86,10.0,North,4.6,-,N/A,,Partly Cloudy,360,2012-09-06 08:53:00
5:53 AM,72.0,66.9,84,29.85,10.0,NNE,4.6,-,N/A,,Clear,20,2012-09-06 09:53:00
6:23 AM,71.6,66.2,83,29.88,10.0,Calm,Calm,-,N/A,,Mostly Cloudy,0,2012-09-06 10:23:00
6:53 AM,71.1,66.9,87,29.87,10.0,Calm,Calm,-,N/A,,Overcast,0,2012-09-06 10:53:00
7:53 AM,73.0,66.0,79,29.88,10.0,North,6.9,-,N/A,,Overcast,360,2012-09-06 11:53:00
8:25 AM,73.4,66.2,78,29.89,10.0,North,3.5,-,N/A,,Scattered Clouds,350,2012-09-06 12:25:00
8:35 AM,73.4,66.2,78,29.89,10.0,Calm,Calm,-,N/A,,Mostly Cloudy,0,2012-09-06 12:35:00
8:53 AM,73.0,66.0,79,29.89,10.0,Calm,Calm,-,N/A,,Overcast,0,2012-09-06 12:53:00
9:53 AM,73.0,66.9,81,29.92,10.0,Calm,Calm,-,0.00,,Mostly Cloudy,0,2012-09-06 13:53:00
10:14 AM,73.4,66.2,78,29.94,10.0,Calm,Calm,-,N/A,,Mostly Cloudy,0,2012-09-06 14:14:00
10:51 AM,75.2,66.2,73,29.94,10.0,East,3.5,-,N/A,,Mostly Cloudy,80,2012-09-06 14:51:00
10:53 AM,75.9,66.9,74,29.92,10.0,Calm,Calm,-,N/A,,Mostly Cloudy,0,2012-09-06 14:53:00
11:53 AM,78.1,68.0,71,29.91,10.0,Calm,Calm,-,N/A,,Mostly Cloudy,0,2012-09-06 15:53:00
12:53 PM,81.0,70.0,69,29.91,10.0,Calm,Calm,-,N/A,,Mostly Cloudy,0,2012-09-06 16:53:00
1:02 PM,80.6,69.8,70,29.92,10.0,Calm,Calm,-,N/A,,Scattered Clouds,0,2012-09-06 17:02:00
1:53 PM,82.9,69.1,63,29.90,10.0,Calm,Calm,-,N/A,,Partly Cloudy,0,2012-09-06 17:53:00
2:53 PM,84.0,69.1,61,29.89,10.0,NNE,3.5,-,N/A,,Overcast,30,2012-09-06 18:53:00
3:53 PM,86.0,69.1,57,29.88,10.0,Variable,3.5,-,N/A,,Clear,0,2012-09-06 19:53:00
4:53 PM,86.0,69.1,57,29.87,10.0,East,6.9,-,N/A,,Clear,100,2012-09-06 20:53:00
5:53 PM,84.0,69.1,61,29.86,10.0,SSE,6.9,-,N/A,,Clear,150,2012-09-06 21:53:00
6:53 PM,82.0,70.0,67,29.88,10.0,South,5.8,-,N/A,,Clear,170,2012-09-06 22:53:00
7:53 PM,79.0,71.1,77,29.89,10.0,South,4.6,-,N/A,,Clear,170,2012-09-06 23:53:00
8:53 PM,75.9,70.0,82,29.91,10.0,SSE,3.5,-,N/A,,Clear,150,2012-09-07 00:53:00
9:53 PM,73.9,69.1,85,29.91,10.0,Calm,Calm,-,N/A,,Clear,0,2012-09-07 01:53:00
10:53 PM,72.0,68.0,87,29.91,10.0,SSW,3.5,-,N/A,,Clear,200,2012-09-07 02:53:00
11:53 PM,72.0,66.0,81,29.92,10.0,Calm,Calm,-,N/A,,Clear,0,2012-09-07 03:53:00